Location: Futoma
(49.8633°N, 22.1290°E)
Time: 22:30:42
(UTC+02:00)

ISS - Visible Passes

Search period start: 25 September 2018 00:00
Search period end: 05 October 2018 00:00
Orbit: 403 x 408 km, 51.6° (Epoch: 26 September)

Date Brightness Start Highest point End Pass type
(mag) Time Alt. Az. Time Alt. Az. Time Alt. Az.
25 Sep -3.2 19:28:33 10° SW 19:31:39 38° SSE 19:33:25 21° E visible
25 Sep -1.5 21:04:44 10° W 21:06:06 22° W 21:06:06 22° W visible
26 Sep -4.0 20:12:49 10° WSW 20:16:08 90° NNW 20:16:23 75° ENE visible
27 Sep -3.8 19:20:58 10° WSW 19:24:14 67° SSE 19:26:35 18° ENE visible
27 Sep -1.7 20:57:32 10° W 20:59:16 28° WNW 20:59:16 28° WNW visible
28 Sep -3.6 20:05:33 10° W 20:08:50 68° N 20:09:23 55° NE visible
29 Sep -3.8 19:13:34 10° WSW 19:16:52 82° NNW 19:19:26 16° ENE visible
29 Sep -1.8 20:50:16 10° WNW 20:52:07 30° WNW 20:52:07 30° WNW visible
30 Sep -3.5 19:58:15 10° W 20:01:33 61° N 20:02:08 50° NE visible
01 Oct -3.6 19:06:15 10° W 19:09:32 65° N 19:12:07 15° ENE visible
01 Oct -2.0 20:42:54 10° WNW 20:44:47 31° WNW 20:44:47 31° WNW visible
02 Oct -3.7 19:50:54 10° WNW 19:54:12 66° N 19:54:46 53° ENE visible
03 Oct -3.5 18:58:52 10° W 19:02:09 61° N 19:04:44 15° E visible
03 Oct -2.1 20:35:27 10° WNW 20:37:24 32° W 20:37:24 32° W visible
04 Oct -3.9 19:43:26 10° WNW 19:46:46 85° NNE 19:47:23 56° E visible
